Weather in Kuznetsovo

Russia / Mari El Republic     56°09′57″N   46°42′42″E
temp.,
°C
wind,
m/s
gust,
m/s
humid.,
%
clouds,
%
prec.,
mm/h
press.,
hPa
HPBL,
m
26 july, mon
mon2600:00+12wsw34716 0.0 102161
03:00+12wsw226975 0.0 102115
06:00+15wsw246082 0.0 1022127
09:00+20w454571 0.0 1022797
12:00+22wnw35425 0.0 10221499
15:00+22w3548100 0.0 1020874
18:00+21w474984 0.0 1020501
21:00+16wsw37615 0.0 101992
27 july, tue
tue2700:00+18sw495476 0.0 1018226
03:00+16w410665 0.0 1018230
06:00+16wnw387212 0.0 1019257
09:00+21nw35595 0.0 1018819
12:00+22nw576014 0.9 10181492
15:00+22wnw375378 1.1 1017308
18:00+23nnw374783 0.0 1016456
21:00+16wnw397830 0.1 1017238
28 july, wed
wed2800:00+14wnw2592100 0.0 1017109
03:00+13w23961 0.0 101747
06:00+15nw23875 0.0 1017177
09:00+20nnw23605 0.0 1016901
12:00+23nw33402 0.0 10151892
15:00+25wnw24352 0.0 10142200
18:00+24w12480 0.0 1013272
21:00+18ssw22570 0.0 101211
29 july, thu
thu2900:00+16ssw33615 0.0 101244
03:00+16ssw367699 0.0 101094
06:00+17ssw4982100 0.3 1009253
09:00+20sw5976100 0.7 1008530
12:00+17s3796100 2.6 1006384
15:00+17s4996100 10.4 1004475
18:00+18w379489 0.0 1003484
21:00+17wsw379797 0.1 1003193
30 july, fri
fri3000:00+16sw3896100 0.0 1003162
03:00+17sw41194100 0.0 1003230
06:00+18w4119194 0.0 1003358
09:00+23wnw58655 0.0 1005846
12:00+27w57465 0.0 10051786
15:00+28w4742100 0.0 10052520
18:00+23nnw116316 0.0 100511
21:00+22s226283 0.0 100522